Regional Weather Roundup
Issued by NWS

Home | Current Version | Previous Version | Text Only | Print | Product List | Glossary On
Versions: 1 2 3 4 5 6 7 8 9 10 11 12 13 14 15 16 17 18 19 20 21 22 23 24 25 26 27 28 29 30 31 32 33 34 35 36 37 38 39 40 41 42 43 44 45 46 47 48 49 50
000
ASCA44 KEWX 040120
RWRMX

LATIN AMERICA AND CARIBBEAN REGIONAL WEATHER ROUNDUP
NATIONAL WEATHER SERVICE AUSTIN/SAN ANTONIO TX
800 PM CDT MON AUG 03 2015

NOTE: "FAIR" INDICATED FEW OR NO CLOUDS BELOW 12,000 FEET WITH NO
SIGNIFICANT WEATHER AND/OR OBSTRUCTIONS TO VISIBILITY.

BAJA CALIFORNIA

CITY           SKY/WX    TMP DP  RH WIND       PRES   REMARKS
LORETO         MOSUNNY   95  84  71 SE6       29.73F HX 123
LA PAZ         PTSUNNY   88  68  51 S12       29.77  HX  91
MEXICALI       SUNNY    106  37   9 SE13      29.67  HX 100
S.J. DEL CABO  MOSUNNY   91  70  49 CALM      29.77F HX  97
TIJUANA        SUNNY     75  59  57 SW8       29.88F

NORTHWESTERN MEXICO

CITY           SKY/WX    TMP DP  RH WIND       PRES   REMARKS
CULIACAN       TSTM      91  82  75 SW7       29.78  HX 114
DURANGO        MOCLDY    72  50  46 NW8       30.12
GUAYMAS        MOSUNNY   91  81  70 S12       29.69  HX 110
HERMOSILLO     MOSUNNY   99  64  32 CALM      29.78  HX 101
CD. JUAREZ     PTSUNNY   90  59  35 NW5       29.93
LOS MOCHIS     MOSUNNY   90  73  58 SW12      29.76S HX  98
OBREGON        PTSUNNY   90  73  58 S5        29.73  HX  98

NORTHEASTERN MEXICO

CITY           SKY/WX    TMP DP  RH WIND       PRES   REMARKS
CHIHUAHUA      PTSUNNY   75  57  53 NW15G26   30.00R
MATAMOROS      PTCLDY    88  79  74 E16       29.88  HX 102
MONCLOVA         N/A    N/A N/A N/A MISG        N/A
MONTERREY      MOCLDY    93  57  29 E5        29.81S HX  92
NUEVO LAREDO   PTCLDY   104  63  25 E7        29.77  HX 106
PIEDRAS NEGRAS   N/A    N/A N/A N/A MISG        N/A
REYNOSA        CLEAR     88  70  55 SE12G23   29.82  HX  92
SALTILLO       PTCLDY    81  61  50 NE17      30.04F
TORREON        PTCLDY    95  52  23 N7        29.91F HX  92
CD. VICTORIA   CLEAR     91  63  38 S8        29.82  HX  92

WESTERN MEXICO

CITY           SKY/WX    TMP DP  RH WIND       PRES   REMARKS
AGUASCALIENTES PTCLDY    73  59  60 S7        30.12
COLIMA         MOCLDY    77  72  83 CALM      29.93R
DEL BAJIO      PTCLDY    75  59  57 N5        30.15F
GUADALAJARA    MOCLDY    73  54  49 NW6       30.07
MANZANILLO     PTCLDY    86  77  74 W6        29.74R HX  97
MAZATLAN       MOCLDY    82  73  74 SW10      29.76S
P. VALLARTA    MOCLDY    88  75  66 SW10      29.79R HX  97
URUAPAN          N/A    N/A N/A N/A MISG        N/A
ZACATECAS      MOCLDY    64  55  72 S6        30.17S

CENTRAL MEXICO

CITY           SKY/WX    TMP DP  RH WIND       PRES   REMARKS
CUERNAVACA       N/A    N/A N/A N/A MISG        N/A
MEXICO CITY    CLOUDY    70  52  52 NE17      30.22R
MORELIA        TSTM      68  63  83 SE13      30.12
POZA RICA      CLEAR     84  75  74 E9        29.86S HX  92
PUEBLA         MOCLDY    59  55  88 NW8       30.24F
QUERETARO      CLOUDY    66  55  68 NW5       30.18R
S. LUIS POTOSI CLEAR     75  50  41 E10       30.13R
TAMPICO        PTCLDY    84  72  65 SE9       29.84R
TOLUCA         TSTM      61  52  72 SE9       30.29R

SOUTHERN MEXICO

CITY           SKY/WX    TMP DP  RH WIND       PRES   REMARKS
ACAPULCO       MOCLDY    86  75  70 W12       29.74R HX  95
B. DE HUATULCO PTCLDY    84  68  58 CALM      29.83
OAXACA         MOCLDY    72  59  64 SE2       30.08R
P. ESCONDIDO     N/A    N/A N/A N/A MISG        N/A
VERACRUZ       PTCLDY    86  77  74 E8        29.85R HX  97
ZIHUATANEJO    MOCLDY    90  77  66 W5        29.77R HX 102

YUCATAN PENINSULA

CITY           SKY/WX    TMP DP  RH WIND       PRES   REMARKS
CAMPECHE       MOCLDY    77  75  94 N6        29.89S
CANCUN         PTCLDY    82  77  83 E5        29.96R HX  91
CHETUMAL       PTCLDY    84  77  79 CALM      29.93  HX  94
CD. DEL CARMEN LGT RAIN  82  72  69 E9        29.87
COZUMEL        MOCLDY    79  75  89 CALM      29.95R
MERIDA         MOCLDY    82  73  74 NE7       29.92R
MINATITLAN     MOCLDY    84  75  74 N12       29.80  HX  92
TAPACHULA      MOCLDY    82  79  89 CALM      29.78R HX  93
TUX. GUTIERREZ MOCLDY    82  68  61 NW9       29.86R
VILLAHERMOSA   MOCLDY    91  75  59 E30       29.85R HX 102

CENTRAL AMERICA

CITY           SKY/WX    TMP DP  RH WIND       PRES   REMARKS
MANAGUA        PTCLDY    86  70  58 E9        29.77R HX  90

CARIBBEAN

CITY           SKY/WX    TMP DP  RH WIND       PRES   REMARKS
ARUBA          PTCLDY    82  77  83 E21       29.83S HX  91
CURACAO        PTCLDY    82  75  78 E15       29.89R
KINGSTON       PTCLDY    84  73  70 SE21      29.92R HX  91
NASSAU         PTCLDY    84  73  70 E6        30.02R HX  91
SAN JUAN       PTCLDY    82  79  89 E14       30.04R HX  93
SANTO DOMINGO  PTCLDY    82  75  78 SE9       30.00R
ST. CROIX      CLEAR     82  73  74 E12       30.04R
ST. KITTS      PTCLDY    82  75  78 NE18      30.03R
ST. MAARTEN    PTCLDY    82  73  74 E12       30.03S
ST. THOMAS     PTCLDY    84  73  70 E16       30.03R HX  91

$$




USA.gov is the U.S. government's official web portal to all federal, state and local government web resources and services.